Miscellaneous Local Product
Issued by NWS Hastings, NE

Home | Current Version | Previous Version | Graphics & Text | Print | Product List | Glossary On
Versions: 1 2 3 4 5 6 7 8 9 10 11 12 13 14 15 16 17 18 19 20 21 22 23 24 25 26 27 28 29 30 31 32 33 34 35 36 37 38 39 40 41 42 43 44 45 46 47 48 49 50
098
AXUS43 KGID 211502
MISGRI

GID CWA HOURLY WEATHER ROUNDUP
NATIONAL WEATHER SERVICE HASTINGS NE
900 AM CST TUE FEB 21 2017

NOTE: "FAIR" INDICATES FEW OR NO CLOUDS BELOW 12,000 FEET WITH NO
SIGNIFICANT WEATHER AND/OR OBSTRUCTIONS TO VISIBILITY.

...SOUTH CENTRAL NEBRASKA...

CITY           SKY/WX    TMP DP  RH WIND       PRES   REMARKS
GRAND ISLAND   SUNNY     48  33  56 SW13      29.98S
HASTINGS       SUNNY     46  33  60 SW8       30.01R
KEARNEY        SUNNY     45  25  45 SW14      29.99S
ORD            SUNNY     40  32  73 E6        29.91F
YORK           MOSUNNY   45  37  76 SW10      30.00S
AURORA         SUNNY     44  37  76 SW8       30.00R
LEXINGTON      SUNNY     46  24  41 SW8       29.98S
HOLDREGE       SUNNY     45  25  45 SW9       30.00R
HEBRON         SUNNY     44  39  81 CALM      30.03R

...NEBRASKA PANHANDLE...

CITY           SKY/WX    TMP DP  RH WIND       PRES   REMARKS
CHADRON        SUNNY     47  32  56 SW13      29.86R
ALLIANCE       SUNNY     43  28  55 SW7       29.92R
SCOTTSBLUFF    SUNNY     50  29  44 N3        29.93R
SIDNEY         SUNNY     51  29  42 W8        29.98R

...WESTERN AND NORTH CENTRAL NEBRASKA...

CITY           SKY/WX    TMP DP  RH WIND       PRES   REMARKS
VALENTINE      SUNNY     48  25  40 W8        29.83S
AINSWORTH      SUNNY     49  27  41 SW13      29.85S
ONEILL         SUNNY     48  28  46 SW10      29.87F
BROKEN BOW     SUNNY     47  25  42 SW13      29.94S
IMPERIAL       SUNNY     43  20  39 W8        29.98S
NORTH PLATTE   SUNNY     41  26  55 CALM      29.97R
MCCOOK         SUNNY     36  25  64 SW5       30.00S WCI  32

...EASTERN NEBRASKA...

CITY           SKY/WX    TMP DP  RH WIND       PRES   REMARKS
NORFOLK        SUNNY     49  34  56 SW21G30   29.93S
SO SIOUX CITY  SUNNY     39  37  92 SE8       29.94S WCI  33
TEKAMAH        SUNNY     41  38  89 SE9       29.97S
COLUMBUS       SUNNY     45  36  70 SW7       29.99R
ALBION         MOSUNNY   46  34  62 S7        29.94F
OMAHA EPPLEY   MOSUNNY   40  38  93 S6        30.00F
MILLARD        SUNNY     42  41  94 CALM      30.00S
LINCOLN        SUNNY     41  38  89 S6        30.01F
NEBRASKA CITY  SUNNY     47  40  75 W8        30.01S
BEATRICE       SUNNY     40  37  87 CALM      30.02F
FALLS CITY     SUNNY     41  39  93 NW5       30.02R

...NORTHERN KANSAS...

CITY           SKY/WX    TMP DP  RH WIND       PRES   REMARKS
GOODLAND       SUNNY     45  16  31 SW7       30.02R
HILL CITY      SUNNY     43  27  53 W5        30.04R
NORTON         SUNNY     41  21  45 SW9       30.01S
SMITH CENTER   SUNNY     37  32  81 SW5       30.04S WCI  34
HAYS           SUNNY     42  31  64 W7        30.06R
RUSSELL        SUNNY     40  32  73 SW10      30.04R WCI  33
CONCORDIA      SUNNY     44  38  79 W6        30.03S
SALINA         SUNNY     42  36  79 CALM      30.05S
TOPEKA         SUNNY     48  42  80 W3        30.01R



USA.gov is the U.S. government's official web portal to all federal, state and local government web resources and services.